| time (UTC) | temp F | wind direction | speed MPH | gust MPH | rain 1hr in | rain 24hr in | rain mn in | humidity % | barometer mb |
| 20260505022836 | 55 | 125 | 0.0 | 2.0 | 0.00 | 0.00 | 0.00 | 73 | 1012.1 |
| 20260505022332 | 55 | 119 | 0.0 | 2.0 | 0.00 | 0.00 | 0.00 | 72 | 1012.2 |
| 20260505021830 | 55 | 182 | 2.0 | 3.0 | 0.00 | 0.00 | 0.00 | 71 | 1012.0 |
| 20260505021326 | 55 | 109 | 2.0 | 2.0 | 0.00 | 0.00 | 0.00 | 71 | 1012.2 |
| 20260505020822 | 56 | 176 | 0.0 | 3.0 | 0.00 | 0.00 | 0.00 | 69 | 1012.0 |
| 20260505020318 | 57 | 102 | 0.0 | 4.0 | 0.00 | 0.00 | 0.00 | 68 | 1012.1 |
| 20260505015815 | 57 | 217 | 2.0 | 5.0 | 0.00 | 0.00 | 0.00 | 67 | 1012.1 |
| 20260505015312 | 57 | 287 | 3.0 | 5.0 | 0.00 | 0.00 | 0.00 | 67 | 1011.9 |
| 20260505014809 | 57 | 241 | 1.0 | 4.0 | 0.00 | 0.00 | 0.00 | 66 | 1011.9 |
| 20260505014307 | 57 | 83 | 0.0 | 4.0 | 0.00 | 0.00 | 0.00 | 66 | 1011.9 |
| 20260505013802 | 58 | 129 | 2.0 | 3.0 | 0.00 | 0.00 | 0.00 | 66 | 1012.0 |
| 20260505013255 | 57 | 204 | 0.0 | 3.0 | 0.00 | 0.00 | 0.00 | 66 | 1011.8 |
| 20260505012753 | 57 | 315 | 2.0 | 3.0 | 0.00 | 0.00 | 0.00 | 66 | 1011.7 |
| 20260505012250 | 58 | 226 | 0.0 | 3.0 | 0.00 | 0.00 | 0.00 | 65 | 1011.8 |
| 20260505011746 | 58 | 197 | 2.0 | 6.0 | 0.00 | 0.00 | 0.00 | 63 | 1011.7 |
| 20260505011243 | 59 | 225 | 0.0 | 5.0 | 0.00 | 0.00 | 0.00 | 63 | 1011.4 |
| 20260505010739 | 59 | 302 | 1.0 | 4.0 | 0.00 | 0.00 | 0.00 | 62 | 1011.6 |
| 20260505010235 | 59 | 209 | 2.0 | 4.0 | 0.00 | 0.00 | 0.00 | 63 | 1011.4 |
| 20260505005732 | 59 | 266 | 1.0 | 4.0 | 0.00 | 0.00 | 0.00 | 62 | 1011.3 |
| 20260505005229 | 59 | 158 | 1.0 | 6.0 | 0.00 | 0.00 | 0.00 | 64 | 1011.0 |
| 20260505004726 | 60 | 228 | 0.0 | 3.0 | 0.00 | 0.00 | 0.00 | 62 | 1010.9 |
| 20260505004222 | 60 | 9 | 0.0 | 3.0 | 0.00 | 0.00 | 0.00 | 60 | 1010.8 |
| 20260505003719 | 60 | 246 | 0.0 | 1.0 | 0.00 | 0.00 | 0.00 | 59 | 1010.7 |
| 20260505003217 | 61 | 194 | 0.0 | 3.0 | 0.00 | 0.00 | 0.00 | 58 | 1010.8 |
| 20260505002713 | 62 | 322 | 4.0 | 7.0 | 0.00 | 0.00 | 0.00 | 56 | 1010.7 |
| 20260505002211 | 62 | 280 | 4.0 | 7.0 | 0.00 | 0.00 | 0.00 | 55 | 1010.3 |
| 20260505001708 | 62 | 287 | 6.0 | 7.0 | 0.00 | 0.00 | 0.00 | 55 | 1010.5 |
| 20260505001205 | 62 | 247 | 4.0 | 7.0 | 0.00 | 0.00 | 0.00 | 55 | 1010.4 |
| 20260505000703 | 63 | 264 | 4.0 | 10.0 | 0.00 | 0.00 | 0.00 | 54 | 1010.3 |
| 20260505000200 | 63 | 14 | 4.0 | 13.0 | 0.00 | 0.00 | 0.00 | 54 | 1010.2 |
| 20260504235656 | 63 | 291 | 8.0 | 11.0 | 0.00 | 0.00 | 0.00 | 54 | 1010.3 |
| 20260504235153 | 63 | 264 | 5.0 | 10.0 | 0.00 | 0.00 | 0.00 | 53 | 1010.3 |
| 20260504234650 | 64 | 289 | 3.0 | 14.0 | 0.00 | 0.00 | 0.00 | 52 | 1010.0 |
| 20260504234147 | 64 | 290 | 7.0 | 11.0 | 0.00 | 0.00 | 0.00 | 52 | 1010.2 |
| 20260504233643 | 64 | 353 | 3.0 | 16.0 | 0.00 | 0.00 | 0.00 | 52 | 1009.9 |
| 20260504233139 | 64 | 308 | 3.0 | 14.0 | 0.00 | 0.00 | 0.00 | 52 | 1009.8 |
| 20260504232637 | 65 | 279 | 5.0 | 13.0 | 0.00 | 0.00 | 0.00 | 51 | 1009.7 |
| 20260504232134 | 65 | 358 | 3.0 | 8.0 | 0.00 | 0.00 | 0.00 | 50 | 1009.6 |
| 20260504231631 | 65 | 302 | 4.0 | 9.0 | 0.00 | 0.00 | 0.00 | 50 | 1009.3 |
| 20260504231127 | 66 | 280 | 5.0 | 8.0 | 0.00 | 0.00 | 0.00 | 49 | 1009.5 |
| 20260504230623 | 66 | 8 | 3.0 | 11.0 | 0.00 | 0.00 | 0.00 | 49 | 1009.3 |
| 20260504230122 | 66 | 282 | 4.0 | 12.0 | 0.00 | 0.00 | 0.00 | 49 | 1009.2 |
| 20260504225620 | 67 | 340 | 4.0 | 10.0 | 0.00 | 0.00 | 0.00 | 48 | 1009.1 |
| 20260504225115 | 67 | 333 | 7.0 | 11.0 | 0.00 | 0.00 | 0.00 | 48 | 1009.2 |
| 20260504224612 | 67 | 297 | 5.0 | 18.0 | 0.00 | 0.00 | 0.00 | 48 | 1009.1 |
| 20260504224109 | 67 | 312 | 8.0 | 13.0 | 0.00 | 0.00 | 0.00 | 48 | 1009.1 |
| 20260504223606 | 67 | 298 | 12.0 | 15.0 | 0.00 | 0.00 | 0.00 | 47 | 1009.0 |
| 20260504223102 | 67 | 317 | 3.0 | 18.0 | 0.00 | 0.00 | 0.00 | 47 | 1009.2 |
| 20260504222559 | 67 | 281 | 3.0 | 14.0 | 0.00 | 0.00 | 0.00 | 47 | 1008.9 |
| 20260504222056 | 67 | 251 | 5.0 | 12.0 | 0.00 | 0.00 | 0.00 | 47 | 1009.0 |
| 20260504221553 | 68 | 261 | 11.0 | 13.0 | 0.00 | 0.00 | 0.00 | 44 | 1009.3 |
| 20260504221050 | 70 | 319 | 4.0 | 13.0 | 0.00 | 0.00 | 0.00 | 36 | 1008.9 |
| 20260504220547 | 71 | 339 | 7.0 | 8.0 | 0.00 | 0.00 | 0.00 | 36 | 1009.0 |
| 20260504220044 | 71 | 264 | 7.0 | 10.0 | 0.00 | 0.00 | 0.00 | 36 | 1009.1 |
| 20260504215540 | 71 | 280 | 8.0 | 10.0 | 0.00 | 0.00 | 0.00 | 35 | 1009.0 |
| 20260504215038 | 71 | 307 | 2.0 | 10.0 | 0.00 | 0.00 | 0.00 | 36 | 1009.0 |
| 20260504214533 | 71 | 335 | 4.0 | 10.0 | 0.00 | 0.00 | 0.00 | 35 | 1009.1 |
| 20260504214030 | 71 | 262 | 3.0 | 13.0 | 0.00 | 0.00 | 0.00 | 37 | 1009.0 |
| 20260504213527 | 72 | 47 | 3.0 | 7.0 | 0.00 | 0.00 | 0.00 | 38 | 1009.2 |
| 20260504213024 | 71 | 328 | 5.0 | 10.0 | 0.00 | 0.00 | 0.00 | 35 | 1009.0 |
| 20260504212520 | 71 | 37 | 4.0 | 10.0 | 0.00 | 0.00 | 0.00 | 37 | 1009.0 |
| 20260504212017 | 71 | 335 | 3.0 | 9.0 | 0.00 | 0.00 | 0.00 | 36 | 1009.2 |
| 20260504211514 | 72 | 49 | 5.0 | 15.0 | 0.00 | 0.00 | 0.00 | 35 | 1009.1 |
| 20260504211011 | 72 | 309 | 5.0 | 12.0 | 0.00 | 0.00 | 0.00 | 34 | 1009.2 |
| 20260504210508 | 71 | 338 | 2.0 | 14.0 | 0.00 | 0.00 | 0.00 | 35 | 1009.1 |
| 20260504210005 | 72 | 293 | 6.0 | 14.0 | 0.00 | 0.00 | 0.00 | 35 | 1009.3 |
| 20260504205503 | 72 | 305 | 3.0 | 13.0 | 0.00 | 0.00 | 0.00 | 36 | 1009.1 |
| 20260504205000 | 71 | 316 | 3.0 | 7.0 | 0.00 | 0.00 | 0.00 | 34 | 1009.1 |
| 20260504204458 | 72 | 283 | 5.0 | 13.0 | 0.00 | 0.00 | 0.00 | 35 | 1009.1 |
| 20260504203957 | 71 | 331 | 2.0 | 13.0 | 0.00 | 0.00 | 0.00 | 35 | 1009.2 |
| 20260504203455 | 72 | 297 | 4.0 | 13.0 | 0.00 | 0.00 | 0.00 | 35 | 1009.2 |
| 20260504202950 | 72 | 256 | 1.0 | 8.0 | 0.00 | 0.00 | 0.00 | 35 | 1009.2 |
| 20260504202447 | 73 | 311 | 3.0 | 6.0 | 0.00 | 0.00 | 0.00 | 36 | 1009.1 |
| 20260504201944 | 71 | 19 | 3.0 | 7.0 | 0.00 | 0.00 | 0.00 | 36 | 1009.3 |
| 20260504201441 | 72 | 5 | 2.0 | 9.0 | 0.00 | 0.00 | 0.00 | 36 | 1009.3 |
| 20260504200939 | 72 | 288 | 8.0 | 12.0 | 0.00 | 0.00 | 0.00 | 35 | 1009.5 |
| 20260504200435 | 72 | 262 | 9.0 | 11.0 | 0.00 | 0.00 | 0.00 | 34 | 1009.3 |
| 20260504195932 | 73 | 35 | 2.0 | 7.0 | 0.00 | 0.00 | 0.00 | 34 | 1009.4 |
| 20260504195428 | 72 | 335 | 12.0 | 16.0 | 0.00 | 0.00 | 0.00 | 34 | 1009.5 |
| 20260504194924 | 72 | 226 | 4.0 | 10.0 | 0.00 | 0.00 | 0.00 | 36 | 1009.4 |
| 20260504194421 | 72 | 339 | 5.0 | 13.0 | 0.00 | 0.00 | 0.00 | 35 | 1009.4 |
| 20260504193917 | 71 | 316 | 8.0 | 12.0 | 0.00 | 0.00 | 0.00 | 35 | 1009.5 |
| 20260504193414 | 71 | 268 | 6.0 | 13.0 | 0.00 | 0.00 | 0.00 | 36 | 1009.4 |
| 20260504192913 | 71 | 35 | 4.0 | 9.0 | 0.00 | 0.00 | 0.00 | 36 | 1009.4 |
| 20260504192410 | 71 | 293 | 4.0 | 10.0 | 0.00 | 0.00 | 0.00 | 36 | 1009.5 |
| 20260504191909 | 71 | 313 | 16.0 | 17.0 | 0.00 | 0.00 | 0.00 | 35 | 1009.4 |
| 20260504191406 | 71 | 18 | 3.0 | 11.0 | 0.00 | 0.00 | 0.00 | 37 | 1009.5 |
| 20260504190901 | 71 | 289 | 8.0 | 24.0 | 0.00 | 0.00 | 0.00 | 36 | 1009.7 |
| 20260504190357 | 71 | 27 | 5.0 | 9.0 | 0.00 | 0.00 | 0.00 | 36 | 1009.8 |
| 20260504185854 | 71 | 313 | 5.0 | 17.0 | 0.00 | 0.00 | 0.00 | 37 | 1009.6 |
| 20260504185351 | 70 | 326 | 6.0 | 16.0 | 0.00 | 0.00 | 0.00 | 36 | 1009.9 |
| 20260504184847 | 71 | 317 | 12.0 | 15.0 | 0.00 | 0.00 | 0.00 | 35 | 1009.9 |
| 20260504184343 | 70 | 304 | 2.0 | 15.0 | 0.00 | 0.00 | 0.00 | 36 | 1009.8 |
| 20260504183839 | 70 | 348 | 8.0 | 17.0 | 0.00 | 0.00 | 0.00 | 36 | 1010.0 |
| 20260504183337 | 70 | 277 | 4.0 | 15.0 | 0.00 | 0.00 | 0.00 | 36 | 1009.8 |
| 20260504182834 | 70 | 85 | 2.0 | 15.0 | 0.00 | 0.00 | 0.00 | 39 | 1009.9 |
| 20260504182331 | 70 | 280 | 3.0 | 9.0 | 0.00 | 0.00 | 0.00 | 38 | 1010.1 |
| 20260504181828 | 70 | 300 | 5.0 | 18.0 | 0.00 | 0.00 | 0.00 | 39 | 1010.0 |
| 20260504181326 | 71 | 284 | 5.0 | 13.0 | 0.00 | 0.00 | 0.00 | 36 | 1010.3 |
| 20260504180824 | 70 | 16 | 3.0 | 11.0 | 0.00 | 0.00 | 0.00 | 39 | 1010.1 |
| 20260504180322 | 70 | 337 | 4.0 | 15.0 | 0.00 | 0.00 | 0.00 | 37 | 1010.3 |
| 20260504175820 | 71 | 5 | 6.0 | 9.0 | 0.00 | 0.00 | 0.00 | 36 | 1010.5 |
| 20260504175317 | 70 | 28 | 6.0 | 7.0 | 0.00 | 0.00 | 0.00 | 37 | 1010.6 |
| 20260504174815 | 71 | 328 | 6.0 | 13.0 | 0.00 | 0.00 | 0.00 | 36 | 1010.5 |
| 20260504174312 | 69 | 9 | 2.0 | 10.0 | 0.00 | 0.00 | 0.00 | 38 | 1010.4 |
| 20260504173809 | 69 | 315 | 11.0 | 18.0 | 0.00 | 0.00 | 0.00 | 37 | 1010.2 |
| 20260504173306 | 69 | 317 | 7.0 | 18.0 | 0.00 | 0.00 | 0.00 | 35 | 1010.5 |
| 20260504172803 | 69 | 25 | 7.0 | 15.0 | 0.00 | 0.00 | 0.00 | 35 | 1010.3 |
| 20260504172259 | 69 | 302 | 0.0 | 7.0 | 0.00 | 0.00 | 0.00 | 39 | 1010.4 |
| 20260504171755 | 68 | 332 | 5.0 | 12.0 | 0.00 | 0.00 | 0.00 | 37 | 1010.6 |
| 20260504171252 | 68 | 241 | 5.0 | 14.0 | 0.00 | 0.00 | 0.00 | 38 | 1010.6 |
| 20260504170749 | 69 | 317 | 6.0 | 11.0 | 0.00 | 0.00 | 0.00 | 36 | 1010.8 |
| 20260504170246 | 68 | 8 | 5.0 | 15.0 | 0.00 | 0.00 | 0.00 | 35 | 1010.8 |
| 20260504160205 | 66 | 272 | 9.0 | 17.0 | 0.00 | 0.00 | 0.00 | 40 | 1011.5 |
| 20260504151133 | 62 | 67 | 3.0 | 14.0 | 0.00 | 0.00 | 0.00 | 41 | 1012.1 |
| 20260504150630 | 64 | 323 | 10.0 | 12.0 | 0.00 | 0.00 | 0.00 | 39 | 1012.1 |
| 20260504150127 | 63 | 326 | 1.0 | 8.0 | 0.00 | 0.00 | 0.00 | 42 | 1012.0 |
| 20260504141055 | 63 | 225 | 2.0 | 17.0 | 0.00 | 0.00 | 0.00 | 44 | 1012.7 |
| 20260504140552 | 63 | 296 | 3.0 | 14.0 | 0.00 | 0.00 | 0.00 | 40 | 1012.5 |
| 20260504130516 | 58 | 280 | 4.0 | 14.0 | 0.00 | 0.00 | 0.00 | 47 | 1013.2 |
| 20260504110404 | 49 | 55 | 0.0 | 7.0 | 0.00 | 0.00 | 0.00 | 65 | 1013.5 |
| 20260504100321 | 40 | 130 | 1.0 | 4.0 | 0.00 | 0.00 | 0.00 | 86 | 1013.3 |
| 20260504081715 | 36 | 112 | 1.0 | 3.0 | 0.00 | 0.00 | 0.00 | 91 | 1012.7 |
| 20260504081211 | 36 | 324 | 0.0 | 1.0 | 0.00 | 0.00 | 0.00 | 91 | 1013.0 |
| 20260504080707 | 36 | 189 | 0.0 | 1.0 | 0.00 | 0.00 | 0.00 | 90 | 1012.8 |
| 20260504080204 | 36 | 230 | 0.0 | 2.0 | 0.00 | 0.00 | 0.00 | 90 | 1012.9 |
| 20260504070131 | 37 | 242 | 0.0 | 2.0 | 0.00 | 0.00 | 0.00 | 88 | 1013.0 |
| 20260504050520 | 36 | 223 | 0.0 | 2.0 | 0.00 | 0.00 | 0.00 | 90 | 1013.2 |
| 20260504050017 | 36 | 252 | 0.0 | 2.0 | 0.00 | 0.00 | 0.00 | 91 | 1013.1 |
| 20260504045514 | 35 | 282 | 0.0 | 2.0 | 0.00 | 0.00 | 0.00 | 91 | 1013.2 |
| 20260504045009 | 35 | 230 | 0.0 | 1.0 | 0.00 | 0.00 | 0.00 | 90 | 1013.1 |
| 20260504044507 | 36 | 142 | 1.0 | 2.0 | 0.00 | 0.00 | 0.00 | 90 | 1013.1 |
| 20260504044004 | 36 | 356 | 1.0 | 2.0 | 0.00 | 0.00 | 0.00 | 90 | 1013.1 |
| 20260504043500 | 36 | 176 | 0.0 | 2.0 | 0.00 | 0.00 | 0.00 | 90 | 1013.2 |
| 20260504042958 | 36 | 122 | 0.0 | 2.0 | 0.00 | 0.00 | 0.00 | 90 | 1013.1 |
| 20260504042454 | 36 | 324 | 0.0 | 1.0 | 0.00 | 0.00 | 0.00 | 90 | 1013.2 |
| 20260504041952 | 36 | 187 | 1.0 | 2.0 | 0.00 | 0.00 | 0.00 | 89 | 1013.3 |
| 20260504041448 | 37 | 30 | 0.0 | 1.0 | 0.00 | 0.00 | 0.00 | 89 | 1013.1 |
| 20260504040943 | 37 | 250 | 0.0 | 2.0 | 0.00 | 0.00 | 0.00 | 88 | 1013.0 |
| 20260504040441 | 37 | 183 | 0.0 | 2.0 | 0.00 | 0.00 | 0.00 | 87 | 1013.0 |
| 20260504035937 | 37 | 144 | 0.0 | 2.0 | 0.00 | 0.00 | 0.00 | 87 | 1013.1 |
| 20260504035435 | 37 | 189 | 0.0 | 2.0 | 0.00 | 0.00 | 0.00 | 86 | 1013.1 |
| 20260504034931 | 37 | 267 | 1.0 | 2.0 | 0.00 | 0.00 | 0.00 | 86 | 1013.1 |
| 20260504034429 | 37 | 264 | 1.0 | 2.0 | 0.00 | 0.00 | 0.00 | 86 | 1012.9 |
| 20260504033926 | 37 | 189 | 0.0 | 2.0 | 0.00 | 0.00 | 0.00 | 85 | 1012.8 |
| 20260504033424 | 37 | 113 | 0.0 | 1.0 | 0.00 | 0.00 | 0.00 | 85 | 1012.8 |
| 20260504032920 | 37 | 324 | 0.0 | 1.0 | 0.00 | 0.00 | 0.00 | 85 | 1012.8 |
| 20260504032417 | 37 | 226 | 0.0 | 1.0 | 0.00 | 0.00 | 0.00 | 84 | 1012.9 |
| 20260504031914 | 38 | 157 | 1.0 | 2.0 | 0.00 | 0.00 | 0.00 | 84 | 1012.8 |
| 20260504031411 | 38 | 286 | 0.0 | 2.0 | 0.00 | 0.00 | 0.00 | 84 | 1012.8 |
| 20260504030908 | 38 | 166 | 0.0 | 2.0 | 0.00 | 0.00 | 0.00 | 83 | 1012.6 |
| 20260504030405 | 38 | 155 | 0.0 | 2.0 | 0.00 | 0.00 | 0.00 | 83 | 1012.7 |
| 20260504025901 | 38 | 245 | 0.0 | 2.0 | 0.00 | 0.00 | 0.00 | 82 | 1012.5 |
| 20260504025358 | 38 | 247 | 0.0 | 1.0 | 0.00 | 0.00 | 0.00 | 81 | 1012.7 |
| 20260504024855 | 39 | 212 | 0.0 | 2.0 | 0.00 | 0.00 | 0.00 | 80 | 1012.8 |
| 20260504024351 | 39 | 164 | 2.0 | 2.0 | 0.00 | 0.00 | 0.00 | 80 | 1012.9 |
| 20260504023848 | 39 | 187 | 1.0 | 2.0 | 0.00 | 0.00 | 0.00 | 79 | 1012.7 |
| 20260504023345 | 39 | 140 | 2.0 | 2.0 | 0.00 | 0.00 | 0.00 | 78 | 1012.8 |